This is the latest recevied weather packets stored in our database for station/object K8RRT. If no packets are shown the sender has not sent any weather packets the latest 10 day(s).
| Time | Temp. | Humidity | Pressure | Rain* | Wind** | Luminosity | Snow |
|---|---|---|---|---|---|---|---|
| 1778064475 | 14.44° C | 99% | 1003.3 hPa | 0 mm | - | 0 W/m² | - |
| 1778064173 | 14.44° C | 99% | 1003.3 hPa | 1.78 mm | - | 0 W/m² | - |
| 1778063870 | 14.44° C | 99% | 1003.4 hPa | 3.05 mm | - | 0 W/m² | - |
| 1778063567 | 15° C | 99% | 1003.4 hPa | 1.27 mm | - | 0 W/m² | - |
| 1778063265 | 15° C | 99% | 1003.1 hPa | 0 mm | - | 0 W/m² | - |
| 1778062963 | 15° C | 99% | 1002.9 hPa | 0 mm | - | 0 W/m² | - |
| 1778062659 | 15° C | 99% | 1002.6 hPa | 0 mm | - | 0 W/m² | - |
| 1778062356 | 14.44° C | 99% | 1002.6 hPa | 0 mm | - | 0 W/m² | - |
| 1778062054 | 14.44° C | 99% | 1002.4 hPa | 0 mm | - | 0 W/m² | - |
| 1778061752 | 14.44° C | 99% | 1002.3 hPa | 0 mm | - | 0 W/m² | - |
| 1778061450 | 14.44° C | 99% | 1002.3 hPa | 0 mm | - | 0 W/m² | - |
| 1778061146 | 14.44° C | 99% | 1001.9 hPa | 0 mm | - | 0 W/m² | - |
| 1778060843 | 14.44° C | 99% | 1002 hPa | 0 mm | - | 0 W/m² | - |
| 1778060541 | 14.44° C | 99% | 1002 hPa | 1.78 mm | - | 0 W/m² | - |
| 1778060240 | 14.44° C | 99% | 1002.2 hPa | 4.83 mm | - | 0 W/m² | - |
| 1778059937 | 14.44° C | 99% | 1002.4 hPa | 11.94 mm | - | 0 W/m² | - |
| 1778059635 | 14.44° C | 99% | 1002.4 hPa | 18.03 mm | - | 0 W/m² | - |
| 1778059332 | 14.44° C | 99% | 1002.3 hPa | 12.7 mm | - | 0 W/m² | - |
| 1778059029 | 14.44° C | 99% | 1002.2 hPa | 6.1 mm | - | 0 W/m² | - |
| 1778058727 | 14.44° C | 99% | 1002.2 hPa | 8.89 mm | - | 0 W/m² | - |
| 1778058425 | 14.44° C | 99% | 1002 hPa | 6.1 mm | - | 0 W/m² | - |
| 1778058121 | 14.44° C | 99% | 1002.4 hPa | 4.83 mm | - | 0 W/m² | - |
| 1778057818 | 14.44° C | 99% | 1002.2 hPa | 4.83 mm | - | 0 W/m² | - |
| 1778057514 | 14.44° C | 99% | 1002.3 hPa | 1.78 mm | - | 0 W/m² | - |
| 1778057211 | 14.44° C | 99% | 1002.2 hPa | 0 mm | - | 0 W/m² | - |
* Rain latest hour (hover to see other rain measurements)
** Current wind speed in m/s (hover to see current wind gust speed)